"startDT [UTC]","vpos","CH4 [ppm]","stdev(CH4) [ppm]","CO2 [ppm]","stdev(CO2) [ppm]","H2O_reported [%]","stdev(H2O_reported)","CavityPressure [torr]","CavityTemp [C]","OutletValve","CH4_dry [ppm]","CO2_dry [ppm]","DasTemp [C]","EtalonTemp [C]","WarmBoxTemp [C]","MPVPosition","T_ECpre [C]","T_EC1 [C]","T_EC2 [C]","p_inlet [hPa]","p_in [hPa]","p_out [hPa]","T_inlet [C]","RH_inlet [%]","dwpt_inlet [C]","T_vent [C]","RH_vent [%]","dwpt_vent [C]","flow_vent [l min-1]","flow_inlet [l min-1]","dwpt_sample [C]","T_room [C]"
2015-10-11 00:00:00,0.0,1.93268,0.00050,399.293,0.046,0.3776,0.0022,140.002,44.999,31847.93037,1.93996,401.127,36.840,45.066,44.999,0.00,0.09,-272.74,-272.80,-9,527,-951,21.8,11.0,-10.0,22.1,11.0,-9.8,5.73,1.95,-5.7,28.5
2015-10-11 00:01:00,0.0,1.93248,0.00032,399.267,0.027,0.3744,0.0024,139.998,44.998,31841.55934,1.93968,401.083,36.644,45.066,44.998,0.00,0.09,-272.74,-272.80,-9,526,-950,21.7,10.9,-10.1,22.0,11.0,-9.8,5.73,2.09,-5.7,28.4
2015-10-11 00:02:00,0.0,1.93247,0.00035,399.278,0.035,0.3787,0.0014,140.003,44.997,31836.36516,1.93975,401.115,36.412,45.065,44.997,0.00,0.09,-272.74,-272.81,-9,526,-950,21.7,11.0,-10.0,22.0,11.1,-9.7,5.73,2.02,-5.7,28.3
2015-10-11 00:03:00,0.0,1.93259,0.00034,399.261,0.021,0.3792,0.0025,140.002,44.996,31827.29772,1.93987,401.103,36.174,45.065,44.997,0.00,0.09,-272.74,-272.81,-9,526,-949,21.7,11.0,-10.0,21.9,11.1,-9.7,5.73,1.91,-5.7,28.2
2015-10-11 00:04:00,0.0,1.93275,0.00036,399.267,0.028,0.3794,0.0028,139.999,44.995,31817.53066,1.94005,401.109,35.958,45.065,44.997,0.00,0.09,-272.74,-272.80,-9,526,-949,21.6,11.1,-10.0,21.9,11.2,-9.7,5.73,1.83,-5.7,28.2
2015-10-11 00:05:00,0.0,1.93324,0.00047,399.271,0.044,0.3780,0.0033,139.997,44.995,31805.96726,1.94050,401.106,35.756,45.065,44.997,0.00,0.09,-272.74,-272.80,-9,526,-949,21.5,11.2,-10.0,21.8,11.2,-9.7,5.73,1.86,-5.7,28.0
2015-10-11 00:06:00,0.0,1.93285,0.00035,399.265,0.042,0.3731,0.0029,139.999,44.995,31799.64508,1.94003,401.075,35.572,45.065,44.998,0.00,0.09,-272.75,-272.80,-9,526,-948,21.5,11.0,-10.2,21.8,11.1,-9.8,5.73,1.98,-5.7,28.0
2015-10-11 00:07:00,0.0,1.93291,0.00042,399.294,0.039,0.3760,0.0024,140.000,44.996,31793.89081,1.94016,401.119,35.411,45.066,44.998,0.00,0.09,-272.74,-272.80,-9,525,-948,21.4,11.1,-10.1,21.7,11.2,-9.9,5.73,2.09,-5.7,27.8
2015-10-11 00:08:00,0.0,1.93273,0.00031,399.275,0.026,0.3764,0.0032,139.999,44.997,31787.56097,1.93996,401.102,35.314,45.067,44.999,0.00,0.09,-272.74,-272.80,-8,525,-948,21.4,11.2,-10.1,21.7,11.2,-9.8,5.73,2.02,-5.7,27.8
2015-10-11 00:09:00,0.0,1.93264,0.00025,399.264,0.034,0.3752,0.0020,140.000,44.998,31784.56993,1.93985,401.085,35.258,45.068,45.000,0.00,0.09,-272.75,-272.80,-8,525,-948,21.4,11.1,-10.1,21.7,11.2,-9.8,5.73,1.80,-5.8,27.8
2015-10-11 00:10:00,0.0,1.93280,0.00043,399.277,0.037,0.3741,0.0022,140.000,44.999,31782.03193,1.94000,401.093,35.286,45.069,45.001,0.00,0.09,-272.74,-272.80,-9,524,-948,21.4,11.1,-10.2,21.7,11.2,-9.9,5.73,1.91,-5.8,27.8
2015-10-11 00:11:00,0.0,1.93273,0.00036,399.265,0.037,0.3742,0.0018,139.999,45.000,31780.57505,1.93991,401.079,35.326,45.069,45.001,0.00,0.09,-272.74,-272.80,-9,524,-948,21.4,11.1,-10.1,21.7,11.2,-9.9,5.73,2.15,-5.8,27.8
2015-10-11 00:12:00,0.0,1.93296,0.00040,399.278,0.041,0.3769,0.0028,140.000,45.000,31779.34321,1.94018,401.109,35.383,45.069,45.001,0.00,0.09,-272.74,-272.81,-9,524,-948,21.4,11.2,-10.0,21.7,11.3,-9.8,5.73,1.89,-5.8,27.8
2015-10-11 00:13:00,0.0,1.93320,0.00035,399.268,0.034,0.3741,0.0024,140.002,45.001,31778.91205,1.94040,401.083,35.452,45.069,45.001,0.00,0.09,-272.74,-272.81,-8,524,-948,21.4,11.1,-10.2,21.7,11.2,-9.8,5.73,1.82,-5.8,27.8
2015-10-11 00:14:00,0.0,1.93311,0.00038,399.262,0.040,0.3717,0.0019,139.998,45.001,31778.90722,1.94027,401.067,35.511,45.069,45.001,0.00,0.09,-272.74,-272.80,-9,524,-948,21.4,11.0,-10.3,21.7,11.1,-9.9,5.73,2.14,-5.8,27.8
2015-10-11 00:15:00,0.0,1.93298,0.00030,399.269,0.023,0.3735,0.0021,140.000,45.002,31779.42947,1.94017,401.081,35.590,45.069,45.000,0.00,0.09,-272.74,-272.81,-10,524,-948,21.4,11.1,-10.2,21.7,11.2,-9.9,5.73,1.95,-5.8,27.8
2015-10-11 00:16:00,0.0,1.93332,0.00047,399.254,0.039,0.3745,0.0021,140.000,45.002,31781.19497,1.94051,401.071,35.657,45.068,45.000,0.00,0.09,-272.75,-272.81,-8,524,-948,21.4,11.1,-10.1,21.7,11.2,-9.9,5.73,1.80,-5.8,27.8
2015-10-11 00:17:00,0.0,1.93299,0.00039,399.236,0.038,0.3731,0.0025,139.999,45.002,31780.27702,1.94019,401.048,35.717,45.068,45.000,0.00,0.09,-272.75,-272.80,-8,524,-948,21.4,11.1,-10.2,21.7,11.2,-9.8,5.73,2.11,-5.8,27.8
2015-10-11 00:18:00,0.0,1.93341,0.00038,399.242,0.037,0.3748,0.0024,139.999,45.001,31782.53207,1.94059,401.059,35.789,45.068,45.000,0.00,0.09,-272.75,-272.81,-9,524,-948,21.4,11.1,-10.1,21.7,11.2,-9.8,5.73,2.00,-5.8,27.8
2015-10-11 00:19:00,0.0,1.93333,0.00047,399.238,0.026,0.3757,0.0030,139.997,45.001,31784.40024,1.94054,401.060,35.863,45.068,45.000,0.00,0.09,-272.75,-272.81,-9,524,-948,21.4,11.2,-10.1,21.7,11.3,-9.8,5.73,1.77,-5.8,27.8
2015-10-11 00:20:00,0.0,1.93375,0.00041,399.253,0.035,0.3768,0.0025,140.003,45.001,31785.76214,1.94099,401.083,35.930,45.068,44.999,0.00,0.09,-272.75,-272.80,-8,524,-949,21.4,11.2,-10.0,21.7,11.3,-9.7,5.73,2.09,-5.8,27.8
2015-10-11 00:21:00,0.0,1.93371,0.00022,399.274,0.031,0.3729,0.0023,140.000,45.001,31785.91268,1.94088,401.083,36.000,45.068,44.999,0.00,0.09,-272.74,-272.80,-8,524,-949,21.5,11.1,-10.1,21.7,11.2,-9.8,5.73,2.04,-5.8,27.8
2015-10-11 00:22:00,0.0,1.93356,0.00035,399.263,0.038,0.3746,0.0016,139.999,45.001,31789.15925,1.94078,401.081,36.059,45.067,44.999,0.00,0.09,-272.75,-272.81,-9,524,-949,21.5,11.1,-10.1,21.7,11.3,-9.8,5.73,1.77,-5.8,27.8
2015-10-11 00:23:00,0.0,1.93418,0.00031,399.270,0.025,0.3755,0.0016,139.998,45.001,31788.49272,1.94139,401.094,36.087,45.068,45.000,0.00,0.09,-272.76,-272.80,-9,524,-949,21.5,11.1,-10.0,21.7,11.3,-9.7,5.73,2.05,-5.8,27.9
2015-10-11 00:24:00,0.0,1.93406,0.00037,399.225,0.035,0.3743,0.0017,139.997,45.001,31790.24720,1.94126,401.041,36.126,45.068,45.000,0.00,0.09,-272.74,-272.80,-8,524,-949,21.5,11.1,-10.1,21.7,11.3,-9.8,5.73,2.07,-5.9,27.9
2015-10-11 00:25:00,0.0,1.93406,0.00024,399.219,0.046,0.3741,0.0022,140.000,45.001,31793.02148,1.94125,401.035,36.183,45.068,45.000,0.00,0.09,-272.74,-272.81,-8,524,-949,21.5,11.1,-10.1,21.7,11.2,-9.8,5.73,1.77,-5.9,27.9
2015-10-11 00:26:00,0.0,1.93381,0.00050,399.212,0.043,0.3720,0.0028,139.999,45.001,31795.03753,1.94097,401.017,36.220,45.068,45.000,0.00,0.09,-272.75,-272.81,-9,524,-949,21.5,11.0,-10.2,21.7,11.2,-9.8,5.73,2.03,-5.9,27.9
2015-10-11 00:27:00,0.0,1.93401,0.00033,399.212,0.035,0.3744,0.0024,140.000,45.001,31796.19362,1.94122,401.028,36.250,45.069,45.001,0.00,0.09,-272.74,-272.80,-9,524,-949,21.5,11.1,-10.1,21.7,11.2,-9.8,5.73,2.08,-5.9,27.9
2015-10-11 00:28:00,0.0,1.93406,0.00028,399.223,0.040,0.3735,0.0020,139.999,45.001,31795.30381,1.94124,401.036,36.270,45.069,45.001,0.00,0.09,-272.73,-272.80,-8,524,-949,21.5,11.0,-10.2,21.7,11.2,-9.8,5.73,1.78,-5.9,27.9
2015-10-11 00:29:00,0.0,1.93427,0.00040,399.231,0.038,0.3730,0.0019,139.999,45.001,31798.08044,1.94144,401.041,36.312,45.069,45.001,0.00,0.09,-272.75,-272.81,-8,524,-949,21.5,11.0,-10.2,21.7,11.2,-9.8,5.73,2.01,-5.9,27.9
2015-10-11 00:30:00,0.0,1.93428,0.00043,399.201,0.027,0.3687,0.0021,140.000,45.001,31799.08653,1.94138,400.989,36.333,45.069,45.001,0.00,0.09,-272.74,-272.81,-9,524,-949,21.5,10.9,-10.3,21.7,11.1,-9.9,5.73,2.10,-5.9,28.0
2015-10-11 00:31:00,0.0,1.93423,0.00044,399.194,0.028,0.3759,0.0021,139.999,45.001,31799.28159,1.94144,401.018,36.375,45.069,45.001,0.00,0.09,-272.74,-272.80,-9,524,-949,21.5,11.1,-10.1,21.7,11.2,-9.8,5.73,1.77,-5.9,28.0
2015-10-11 00:32:00,0.0,1.93459,0.00046,399.199,0.035,0.3745,0.0031,140.003,45.000,31800.77587,1.94182,401.016,36.421,45.069,45.001,0.00,0.09,-272.75,-272.80,-8,524,-949,21.5,11.1,-10.1,21.7,11.2,-9.8,5.73,2.00,-5.9,28.0
2015-10-11 00:33:00,0.0,1.93489,0.00031,399.211,0.039,0.3695,0.0031,140.001,45.000,31801.79526,1.94198,401.003,36.443,45.068,45.000,0.00,0.09,-272.75,-272.81,-9,524,-949,21.5,10.9,-10.3,21.7,11.1,-9.9,5.73,2.10,-5.9,28.0
2015-10-11 00:34:00,0.0,1.93521,0.00037,399.233,0.037,0.3722,0.0030,139.995,45.000,31797.98929,1.94237,401.038,36.479,45.068,45.000,0.00,0.09,-272.74,-272.80,-9,524,-949,21.5,11.0,-10.2,21.7,11.1,-9.9,5.73,1.78,-5.9,28.0
2015-10-11 00:35:00,0.0,1.93529,0.00036,399.222,0.041,0.3737,0.0029,139.999,45.000,31799.14724,1.94247,401.035,36.497,45.068,45.000,0.00,0.09,-272.74,-272.80,-8,524,-949,21.5,11.0,-10.2,21.7,11.2,-9.8,5.73,1.99,-5.9,28.0
2015-10-11 00:36:00,0.0,1.93552,0.00046,399.253,0.024,0.3701,0.0037,139.999,45.000,31800.17205,1.94262,401.049,36.513,45.068,45.000,0.00,0.09,-272.75,-272.81,-8,524,-949,21.5,10.9,-10.2,21.7,11.1,-9.9,5.73,2.10,-5.9,28.1
2015-10-11 00:37:00,0.0,1.93569,0.00041,399.241,0.053,0.3728,0.0031,140.001,45.000,31801.53693,1.94288,401.051,36.551,45.068,45.000,0.00,0.09,-272.74,-272.80,-9,524,-949,21.6,11.0,-10.1,21.7,11.1,-9.9,5.73,1.77,-5.9,28.1
2015-10-11 00:38:00,0.0,1.93601,0.00035,399.245,0.043,0.3757,0.0038,139.999,45.000,31800.25073,1.94322,401.069,36.562,45.068,45.000,0.00,0.09,-272.74,-272.79,-9,524,-949,21.6,11.1,-10.1,21.7,11.2,-9.8,5.73,2.01,-5.9,28.1
2015-10-11 00:39:00,0.0,1.93562,0.00034,399.236,0.036,0.3656,0.0033,139.999,45.000,31803.22807,1.94268,401.008,36.564,45.068,45.000,0.00,0.09,-272.75,-272.81,-8,524,-949,21.6,10.7,-10.4,21.8,11.0,-10.0,5.73,2.09,-5.9,28.1
2015-10-11 00:40:00,0.0,1.93584,0.00034,399.237,0.053,0.3669,0.0048,139.998,45.000,31805.84403,1.94290,401.019,36.592,45.068,45.000,0.00,0.09,-272.74,-272.81,-9,524,-949,21.6,10.8,-10.4,21.8,11.0,-10.0,5.73,1.77,-5.9,28.1
2015-10-11 00:41:00,0.0,1.93568,0.00046,399.243,0.028,0.3672,0.0032,140.001,45.001,31806.82849,1.94276,401.023,36.590,45.068,45.001,0.00,0.09,-272.74,-272.80,-9,524,-949,21.6,10.8,-10.4,21.8,11.0,-10.0,5.73,2.04,-5.9,28.1
2015-10-11 00:42:00,0.0,1.93543,0.00039,399.237,0.042,0.3690,0.0041,140.001,45.001,31808.11709,1.94253,401.028,36.621,45.068,45.001,0.00,0.09,-272.74,-272.80,-8,524,-949,21.6,10.9,-10.3,21.8,11.0,-10.0,5.73,2.06,-5.9,28.2
2015-10-11 00:43:00,0.0,1.93558,0.00043,399.223,0.024,0.3729,0.0025,140.001,45.000,31810.53032,1.94279,401.033,36.625,45.068,45.001,0.00,0.09,-272.74,-272.81,-8,524,-949,21.6,10.9,-10.2,21.8,11.1,-9.9,5.73,1.77,-5.9,28.2
2015-10-11 00:44:00,0.0,1.93565,0.00031,399.235,0.028,0.3722,0.0022,140.000,45.000,31811.22767,1.94278,401.040,36.643,45.068,45.001,0.00,0.09,-272.75,-272.80,-9,524,-949,21.6,10.9,-10.2,21.8,11.1,-9.9,5.73,2.08,-5.9,28.2
2015-10-11 00:45:00,0.0,1.93587,0.00039,399.243,0.037,0.3748,0.0022,139.997,45.000,31810.05670,1.94309,401.063,36.683,45.068,45.000,0.00,0.09,-272.74,-272.80,-9,524,-949,21.6,11.0,-10.1,21.8,11.2,-9.8,5.73,2.02,-5.9,28.2
2015-10-11 00:46:00,0.0,1.93593,0.00040,399.221,0.036,0.3732,0.0033,139.999,45.000,31812.61245,1.94310,401.031,36.700,45.068,45.000,0.00,0.09,-272.75,-272.80,-8,524,-949,21.6,11.0,-10.2,21.8,11.2,-9.8,5.73,1.77,-6.0,28.2
2015-10-11 00:47:00,0.0,1.93597,0.00041,399.220,0.056,0.3748,0.0034,139.999,45.000,31812.93527,1.94320,401.040,36.701,45.068,45.000,0.00,0.09,-272.75,-272.80,-9,524,-949,21.6,11.0,-10.1,21.8,11.2,-9.8,5.73,2.11,-5.9,28.2
2015-10-11 00:48:00,0.0,1.93605,0.00040,399.209,0.033,0.3728,0.0032,139.999,45.000,31813.88233,1.94322,401.018,36.720,45.068,45.000,0.00,0.09,-272.74,-272.80,-9,524,-949,21.6,10.9,-10.2,21.8,11.2,-9.8,5.73,1.97,-5.9,28.2
2015-10-11 00:49:00,0.0,1.93634,0.00051,399.209,0.047,0.3688,0.0051,140.001,45.000,31813.76681,1.94342,400.999,36.747,45.068,45.000,0.00,0.09,-272.74,-272.80,-8,524,-949,21.6,10.8,-10.4,21.8,11.0,-9.9,5.73,1.79,-6.0,28.2
2015-10-11 00:50:00,0.0,1.93633,0.00041,399.214,0.033,0.3694,0.0048,140.000,45.000,31815.10954,1.94344,401.003,36.750,45.068,45.000,0.00,0.09,-272.75,-272.80,-8,524,-949,21.6,10.8,-10.3,21.8,11.0,-10.0,5.73,2.13,-6.0,28.2
2015-10-11 00:51:00,0.0,1.93664,0.00038,399.232,0.039,0.3745,0.0023,139.998,45.000,31811.73270,1.94384,401.050,36.752,45.068,45.000,0.00,0.09,-272.74,-272.80,-9,524,-950,21.6,11.0,-10.1,21.8,11.1,-9.8,5.73,1.92,-6.0,28.2
2015-10-11 00:52:00,0.0,1.93635,0.00050,399.209,0.037,0.3694,0.0050,139.999,45.000,31812.68841,1.94349,401.004,36.754,45.068,45.000,0.00,0.09,-272.74,-272.80,-9,524,-950,21.6,10.8,-10.3,21.8,11.1,-9.9,5.73,1.82,-6.0,28.2
2015-10-11 00:53:00,0.0,1.93663,0.00050,399.220,0.033,0.3678,0.0057,140.001,45.000,31814.87618,1.94370,401.003,36.775,45.068,45.000,0.00,0.09,-272.75,-272.81,-8,524,-950,21.6,10.8,-10.4,21.8,10.9,-10.1,5.73,2.15,-6.0,28.2
2015-10-11 00:54:00,0.0,1.93672,0.00031,399.218,0.035,0.3748,0.0021,140.002,45.000,31815.79892,1.94393,401.035,36.798,45.068,45.000,0.00,0.09,-272.73,-272.81,-9,524,-950,21.6,11.0,-10.1,21.8,11.1,-9.8,5.73,1.86,-6.0,28.2
2015-10-11 00:55:00,0.0,1.93665,0.00052,399.239,0.026,0.3774,0.0016,139.997,45.000,31813.08667,1.94394,401.069,36.807,45.068,45.000,0.00,0.09,-272.74,-272.80,-9,524,-950,21.7,11.1,-10.0,21.8,11.2,-9.7,5.73,1.88,-6.0,28.2
2015-10-11 00:56:00,0.0,1.93640,0.00037,399.203,0.042,0.3747,0.0025,140.002,45.000,31816.68698,1.94364,401.024,36.812,45.068,45.000,0.00,0.09,-272.74,-272.81,-8,525,-950,21.7,11.0,-10.1,21.8,11.2,-9.8,5.73,2.15,-6.0,28.3
2015-10-11 00:57:00,0.0,1.93623,0.00045,399.206,0.046,0.3725,0.0037,139.998,45.000,31817.69841,1.94337,401.011,36.838,45.068,45.000,0.00,0.09,-272.74,-272.81,-8,524,-950,21.7,10.9,-10.2,21.9,11.2,-9.7,5.73,1.81,-6.0,28.3
2015-10-11 00:58:00,0.0,1.93610,0.00046,399.200,0.035,0.3791,0.0025,139.999,45.000,31820.67840,1.94341,401.041,36.865,45.068,45.000,0.00,0.09,-272.74,-272.79,-9,524,-950,21.7,11.1,-10.0,21.9,11.2,-9.7,5.73,1.94,-6.0,28.3
2015-10-11 00:59:00,0.0,1.93593,0.00028,399.184,0.028,0.3790,0.0021,139.999,45.000,31820.78603,1.94325,401.025,36.873,45.068,45.000,0.00,0.09,-272.74,-272.80,-9,525,-950,21.7,11.1,-10.0,21.9,11.3,-9.6,5.73,2.12,-6.0,28.3
2015-10-11 01:00:00,0.0,1.93604,0.00041,399.187,0.029,0.3785,0.0029,140.001,45.000,31820.29901,1.94334,401.022,36.875,45.067,45.000,0.00,0.09,-272.74,-272.81,-8,524,-949,21.7,11.1,-10.0,21.9,11.2,-9.7,5.73,1.77,-6.0,28.3
2015-10-11 01:01:00,0.0,1.93601,0.00029,399.171,0.038,0.3774,0.0040,139.998,45.000,31820.16002,1.94328,401.003,36.889,45.068,45.000,0.00,0.09,-272.74,-272.80,-9,524,-949,21.7,11.0,-10.0,21.8,11.2,-9.7,5.73,2.02,-6.0,28.3
2015-10-11 01:02:00,0.0,1.93563,0.00028,399.178,0.030,0.3797,0.0032,139.997,45.000,31818.93174,1.94293,401.021,36.911,45.068,45.000,0.00,0.09,-272.74,-272.80,-9,525,-949,21.7,11.1,-10.0,21.9,11.3,-9.6,5.73,2.05,-6.0,28.3
2015-10-11 01:03:00,0.0,1.93592,0.00038,399.175,0.030,0.3799,0.0034,139.998,45.000,31819.63732,1.94325,401.018,36.926,45.068,45.000,0.00,0.09,-272.74,-272.80,-8,525,-949,21.7,11.2,-9.9,21.9,11.3,-9.6,5.73,1.76,-6.0,28.3
2015-10-11 01:04:00,0.0,1.93559,0.00041,399.172,0.047,0.3807,0.0017,139.996,45.000,31819.69436,1.94289,401.022,36.920,45.067,45.000,0.00,0.09,-272.75,-272.79,-9,524,-949,21.7,11.2,-9.9,21.9,11.3,-9.5,5.73,2.11,-6.0,28.3
2015-10-11 01:05:00,0.0,1.93536,0.00043,399.174,0.033,0.3810,0.0026,139.999,45.000,31820.71540,1.94271,401.022,36.915,45.067,45.000,0.00,0.09,-272.74,-272.80,-9,525,-949,21.6,11.1,-9.9,21.8,11.3,-9.6,5.73,1.95,-6.0,28.3
2015-10-11 01:06:00,0.0,1.93547,0.00034,399.170,0.043,0.3802,0.0022,139.999,45.000,31821.89830,1.94280,401.016,36.918,45.067,45.000,0.00,0.09,-272.75,-272.81,-8,525,-949,21.6,11.1,-9.9,21.8,11.3,-9.6,5.73,1.81,-6.0,28.3
2015-10-11 01:07:00,0.0,1.93560,0.00060,399.183,0.031,0.3798,0.0029,139.998,45.000,31819.85664,1.94289,401.024,36.897,45.067,45.000,0.00,0.09,-272.74,-272.81,-8,524,-949,21.7,11.1,-9.9,21.8,11.3,-9.6,5.73,2.15,-6.0,28.4
2015-10-11 01:08:00,0.0,1.93577,0.00035,399.176,0.042,0.3822,0.0022,139.999,45.000,31818.16263,1.94317,401.035,36.881,45.068,45.000,0.00,0.09,-272.73,-272.81,-10,525,-949,21.7,11.2,-9.9,21.8,11.4,-9.5,5.73,1.86,-6.0,28.3
2015-10-11 01:09:00,0.0,1.93597,0.00039,399.184,0.045,0.3774,0.0045,139.999,45.000,31819.52199,1.94317,401.013,36.888,45.068,45.000,0.00,0.09,-272.74,-272.80,-9,525,-949,21.7,11.1,-10.0,21.8,11.2,-9.7,5.73,1.88,-6.0,28.4
2015-10-11 01:10:00,0.0,1.93604,0.00030,399.170,0.026,0.3832,0.0020,140.000,45.000,31819.39619,1.94344,401.029,36.893,45.068,45.000,0.00,0.09,-272.75,-272.80,-8,525,-949,21.7,11.3,-9.8,21.9,11.4,-9.5,5.73,2.14,-6.0,28.3
2015-10-11 01:11:00,0.0,1.93583,0.00048,399.193,0.036,0.3796,0.0036,139.998,45.000,31820.06292,1.94317,401.035,36.910,45.068,45.000,0.00,0.09,-272.74,-272.80,-9,525,-949,21.7,11.1,-9.9,21.9,11.3,-9.5,5.73,1.79,-6.1,28.3
2015-10-11 01:12:00,0.0,1.93580,0.00043,399.202,0.040,0.3828,0.0024,140.000,45.000,31818.29626,1.94317,401.059,36.888,45.068,45.000,0.00,0.09,-272.75,-272.80,-9,525,-949,21.7,11.2,-9.8,21.9,11.4,-9.5,5.73,1.98,-6.1,28.3
2015-10-11 01:13:00,0.0,1.93601,0.00049,399.195,0.036,0.3806,0.0040,139.999,45.000,31818.49104,1.94335,401.045,36.923,45.068,45.000,0.00,0.09,-272.75,-272.81,-8,525,-949,21.7,11.1,-9.9,21.9,11.3,-9.5,5.73,2.09,-6.1,28.4
2015-10-11 01:14:00,0.0,1.93633,0.00047,399.228,0.027,0.3829,0.0038,140.001,45.000,31819.85956,1.94368,401.084,36.936,45.068,45.000,0.00,0.09,-272.74,-272.81,-9,525,-949,21.7,11.2,-9.8,21.9,11.3,-9.5,5.73,1.76,-6.1,28.4
2015-10-11 01:15:00,0.0,1.93661,0.00039,399.237,0.032,0.3845,0.0021,140.001,45.000,31819.09557,1.94403,401.103,36.938,45.068,45.000,0.00,0.09,-272.74,-272.79,-10,525,-949,21.7,11.2,-9.8,21.9,11.4,-9.5,5.73,2.07,-6.1,28.4
2015-10-11 01:16:00,0.0,1.93619,0.00053,399.202,0.026,0.3850,0.0021,140.000,45.000,31820.73966,1.94362,401.071,36.938,45.068,45.000,0.00,0.09,-272.74,-272.81,-8,525,-949,21.7,11.2,-9.8,21.9,11.4,-9.4,5.73,2.00,-6.1,28.4
2015-10-11 01:17:00,0.0,1.93643,0.00045,399.227,0.033,0.3835,0.0022,140.000,45.000,31820.15780,1.94381,401.089,36.935,45.068,45.000,0.00,0.09,-272.74,-272.80,-8,525,-949,21.7,11.2,-9.8,21.9,11.4,-9.4,5.73,1.77,-6.1,28.4
2015-10-11 01:18:00,0.0,1.93635,0.00051,399.205,0.049,0.3853,0.0027,139.996,45.000,31818.65755,1.94375,401.074,36.930,45.068,45.000,0.00,0.09,-272.74,-272.79,-10,525,-949,21.7,11.2,-9.8,21.9,11.4,-9.5,5.73,2.14,-6.1,28.4
2015-10-11 01:19:00,0.0,1.93598,0.00039,399.216,0.042,0.3860,0.0022,140.001,45.000,31821.62913,1.94344,401.091,36.926,45.068,45.000,0.00,0.09,-272.74,-272.81,-9,525,-949,21.7,11.2,-9.8,21.9,11.5,-9.4,5.73,1.91,-6.1,28.4
2015-10-11 01:20:00,0.0,1.93598,0.00030,399.210,0.036,0.3847,0.0022,139.997,45.000,31821.19143,1.94342,401.077,36.935,45.068,45.000,0.00,0.09,-272.75,-272.81,-8,525,-949,21.7,11.2,-9.8,21.9,11.4,-9.5,5.73,1.84,-6.1,28.4
2015-10-11 01:21:00,0.0,1.93619,0.00039,399.195,0.034,0.3843,0.0018,140.000,45.000,31821.26056,1.94359,401.060,36.934,45.068,45.000,0.00,0.09,-272.74,-272.80,-9,525,-949,21.7,11.2,-9.8,21.9,11.4,-9.4,5.73,2.15,-6.1,28.4
2015-10-11 01:22:00,0.0,1.93635,0.00039,399.225,0.045,0.3847,0.0017,140.000,45.000,31817.81170,1.94375,401.094,36.933,45.068,45.000,0.00,0.09,-272.73,-272.81,-9,525,-949,21.7,11.2,-9.8,21.8,11.4,-9.5,5.73,1.83,-6.1,28.4
2015-10-11 01:23:00,0.0,1.93632,0.00031,399.239,0.035,0.3798,0.0029,139.998,45.000,31817.92104,1.94364,401.082,36.938,45.068,45.000,0.00,0.09,-272.75,-272.80,-8,525,-949,21.7,11.1,-10.0,21.8,11.3,-9.6,5.73,1.91,-6.1,28.4
2015-10-11 01:24:00,0.0,1.93656,0.00040,399.252,0.039,0.3816,0.0048,139.998,45.000,31817.19064,1.94389,401.104,36.938,45.068,45.000,0.00,0.09,-272.74,-272.80,-9,525,-949,21.7,11.2,-9.8,21.8,11.4,-9.5,5.73,2.13,-6.1,28.4
2015-10-11 01:25:00,0.0,1.93662,0.00041,399.255,0.035,0.3847,0.0015,139.998,45.000,31816.69334,1.94403,401.121,36.931,45.068,45.000,0.00,0.09,-272.74,-272.80,-9,525,-949,21.7,11.2,-9.8,21.9,11.4,-9.5,5.73,1.78,-6.1,28.4
2015-10-11 01:26:00,0.0,1.93664,0.00032,399.271,0.035,0.3830,0.0022,140.000,45.000,31816.17770,1.94402,401.131,36.913,45.068,45.000,0.00,0.09,-272.75,-272.80,-8,525,-949,21.7,11.2,-9.8,21.9,11.4,-9.5,5.73,1.99,-6.1,28.4
2015-10-11 01:27:00,0.0,1.93658,0.00039,399.265,0.029,0.3838,0.0018,140.000,45.000,31815.67080,1.94398,401.128,36.898,45.068,45.000,0.00,0.09,-272.75,-272.81,-8,525,-949,21.6,11.2,-9.9,21.9,11.4,-9.5,5.73,2.08,-6.1,28.4
2015-10-11 01:28:00,0.0,1.93685,0.00052,399.283,0.029,0.3817,0.0033,140.000,45.000,31816.00662,1.94417,401.137,36.882,45.068,45.000,0.00,0.09,-272.74,-272.80,-9,525,-949,21.6,11.2,-9.9,21.9,11.3,-9.6,5.73,1.76,-6.1,28.4
2015-10-11 01:29:00,0.0,1.93677,0.00042,399.283,0.026,0.3862,0.0020,140.001,45.000,31814.45726,1.94423,401.157,36.895,45.068,45.000,0.00,0.09,-272.75,-272.80,-9,525,-949,21.7,11.3,-9.8,21.8,11.4,-9.5,5.73,2.05,-6.1,28.4
2015-10-11 01:30:00,0.0,1.93659,0.00040,399.289,0.056,0.3722,0.0074,140.001,45.000,31815.24047,1.94377,401.098,36.919,45.068,45.000,0.00,0.09,-272.74,-272.81,-8,525,-949,21.7,10.9,-10.2,21.8,11.2,-9.7,5.73,2.02,-6.1,28.4
2015-10-11 01:31:00,0.0,1.93675,0.00039,399.273,0.023,0.3801,0.0037,139.998,45.000,31814.67299,1.94410,401.117,36.884,45.068,45.000,0.00,0.09,-272.74,-272.80,-9,525,-949,21.7,11.1,-10.0,21.9,11.2,-9.7,5.73,1.76,-6.1,28.4
2015-10-11 01:32:00,0.0,1.93660,0.00038,399.272,0.025,0.3783,0.0048,140.000,45.000,31816.21314,1.94388,401.107,36.900,45.068,45.000,0.00,0.09,-272.74,-272.79,-9,525,-949,21.6,11.0,-10.1,21.9,11.2,-9.7,5.73,2.12,-6.1,28.4
2015-10-11 01:33:00,0.0,1.93687,0.00035,399.291,0.037,0.3804,0.0024,140.000,45.000,31814.67255,1.94419,401.137,36.882,45.068,45.000,0.00,0.09,-272.74,-272.80,-8,525,-949,21.6,11.1,-10.0,21.8,11.3,-9.6,5.73,1.93,-6.2,28.4
2015-10-11 01:34:00,0.0,1.93682,0.00044,399.302,0.039,0.3769,0.0056,139.996,45.000,31814.71619,1.94410,401.132,36.875,45.068,45.000,0.00,0.09,-272.74,-272.81,-8,525,-949,21.7,11.0,-10.1,21.9,11.2,-9.7,5.73,1.81,-6.2,28.4
2015-10-11 01:35:00,0.0,1.93672,0.00042,399.295,0.031,0.3807,0.0032,140.000,45.000,31816.39148,1.94401,401.143,36.872,45.068,45.000,0.00,0.09,-272.74,-272.80,-10,525,-949,21.7,11.1,-9.9,21.8,11.3,-9.6,5.73,2.15,-6.2,28.4
2015-10-11 01:36:00,0.0,1.93702,0.00049,399.304,0.032,0.3743,0.0047,139.999,45.000,31814.79343,1.94423,401.123,36.868,45.068,45.000,0.00,0.09,-272.73,-272.81,-9,525,-949,21.7,10.9,-10.1,21.8,11.2,-9.8,5.73,1.85,-6.2,28.4
2015-10-11 01:37:00,0.0,1.93726,0.00041,399.328,0.042,0.3773,0.0051,139.998,45.000,31813.95465,1.94454,401.158,36.864,45.068,45.000,0.00,0.09,-272.74,-272.80,-8,525,-949,21.7,11.0,-10.1,21.8,11.1,-9.8,5.73,1.89,-6.2,28.4
2015-10-11 01:38:00,0.0,1.93769,0.00038,399.349,0.046,0.3776,0.0047,140.001,45.000,31811.97670,1.94497,401.182,36.873,45.068,45.000,0.00,0.09,-272.74,-272.80,-10,525,-949,21.8,11.0,-10.0,21.8,11.2,-9.7,5.73,2.14,-6.2,28.4
2015-10-11 01:39:00,0.0,1.93734,0.00059,399.358,0.042,0.3772,0.0036,140.000,45.000,31811.17020,1.94466,401.190,36.847,45.068,45.000,0.00,0.09,-272.74,-272.80,-9,525,-949,21.7,11.0,-10.0,21.9,11.2,-9.7,5.73,1.77,-6.2,28.4
2015-10-11 01:40:00,0.0,1.93750,0.00035,399.375,0.047,0.3683,0.0052,140.001,45.000,31811.10602,1.94454,401.163,36.818,45.067,45.000,0.00,0.09,-272.76,-272.80,-8,525,-949,21.7,10.7,-10.3,21.8,11.0,-10.0,5.73,1.99,-6.2,28.4
2015-10-11 01:41:00,0.0,1.93726,0.00039,399.353,0.034,0.3720,0.0033,140.000,45.000,31809.93142,1.94443,401.157,36.841,45.068,45.000,0.00,0.09,-272.74,-272.81,-9,525,-948,21.7,10.8,-10.3,21.9,11.0,-9.9,5.73,2.07,-6.2,28.4
2015-10-11 01:42:00,0.0,1.93772,0.00042,399.362,0.039,0.3779,0.0039,140.001,45.000,31809.89196,1.94498,401.197,36.857,45.067,45.000,0.00,0.09,-272.74,-272.80,-9,525,-948,21.7,11.0,-10.1,21.9,11.2,-9.7,5.73,1.75,-6.2,28.4
2015-10-11 01:43:00,0.0,1.93727,0.00039,399.327,0.034,0.3719,0.0060,140.000,45.000,31809.84108,1.94446,401.133,36.832,45.067,45.000,0.00,0.09,-272.75,-272.80,-8,525,-948,21.7,10.8,-10.3,21.9,11.1,-9.8,5.73,2.08,-6.2,28.4
2015-10-11 01:44:00,0.0,1.93762,0.00041,399.358,0.036,0.3771,0.0044,139.998,45.000,31810.13004,1.94485,401.188,36.826,45.067,45.000,0.00,0.09,-272.74,-272.81,-9,525,-949,21.6,11.0,-10.1,21.8,11.1,-9.8,5.73,1.99,-6.2,28.4
2015-10-11 01:45:00,0.0,1.93763,0.00035,399.341,0.024,0.3803,0.0022,140.000,45.000,31808.33377,1.94497,401.188,36.813,45.067,45.000,0.00,0.09,-272.73,-272.80,-10,525,-948,21.7,11.1,-9.9,21.8,11.2,-9.7,5.73,1.78,-6.2,28.4